Regional Weather Roundup
Issued by NWS Sterling, VA

Home | Current Version | Previous Version | Text Only | Print | Product List | Glossary Off
Versions: 1 2 3 4 5 6 7 8 9 10 11 12 13 14 15 16 17 18 19 20 21 22 23 24 25 26 27

000
ASUS41 KLWX 240611
RWRLWX

REGIONAL WEATHER ROUNDUP
NATIONAL WEATHER SERVICE BALTIMORE MD/WASHINGTON DC
200 AM EDT MON APR 24 2017

Note: "FAIR" indicates few or no clouds below 12,000 feet
with no significant weather and/or obstructions to visibility.
 TC=TEMPERATURE CELSIUS

 * =Non NWS site. Station does not report precipitation (e.g. rain,
    snow, etc.), thunder, or fog.

DCZ001-MDZ009-015-VAZ040>042-051-053>054-240700-
WASHINGTON METRO

CITY           SKY/WX    TMP DP  RH WIND       PRES   REMARKS
WASHINGTON NAT LGT RAIN  56  48  74 E7        30.09F
DULLES         CLOUDY    54  46  74 CALM      30.08F
ANDREWS AFB    CLOUDY    52  47  84 CALM      30.07F
FT BELVOIR     CLOUDY    53  48  84 CALM      30.08F
QUANTICO       CLOUDY    56  49  77 E9        30.08F
COLLEGE PARK*  CLOUDY    53  47  82 CALM      30.08F
LEESBURG*      CLOUDY    54  50  87 CALM      30.09F
MANASSAS*      LGT RAIN  52  50  93 CALM      30.09F

$$

MDZ006>007-011-014-240700-
BALTIMORE METRO

CITY           SKY/WX    TMP DP  RH WIND       PRES   REMARKS
BWI AIRPORT    CLOUDY    53  50  89 CALM      30.09F
MD SCIENCE CTR   N/A     56  47  71 MISG      30.10F
MARTIN STATE   CLOUDY    54  50  87 E3        30.11F
ANNAPOLIS      CLOUDY    56  47  71 E6        30.08F
FORT MEADE*    CLOUDY    50  46  87 CALM      30.11F

$$

MDZ012-015-019>023-240700-
MARYLAND EASTERN SHORE

CITY           SKY/WX    TMP DP  RH WIND       PRES   REMARKS
OCEAN CITY     CLOUDY    51  47  86 NE10      30.07F
SALISBURY      CLOUDY    50  49  96 NE6       30.07F
BAY BRIDGE AP* CLOUDY    52  45  76 E5        30.09F
EASTON*        PTCLDY    52  46  80 E3        30.12F

$$

MDZ017>025-240700-
SOUTHERN MARYLAND

CITY           SKY/WX    TMP DP  RH WIND       PRES   REMARKS
PATUXENT RIVER CLOUDY    52  50  93 NE10      30.06F
ST INIGOES     CLOUDY    52  48  86 NE5       30.05F
LEONARDTOWN*   CLOUDY    50  46  87 NE3       30.07F

$$

MDZ003>005-240700-
NORTH CENTRAL MARYLAND

CITY           SKY/WX    TMP DP  RH WIND       PRES   REMARKS
FREDERICK*     CLOUDY    52  52 100 CALM      30.12S
HAGERSTOWN APT PTCLDY    54  44  69 CALM      30.09F
WESTMINSTER*   CLOUDY    54  46  76 CALM      30.08F

$$

MDZ501>502-240700-
WESTERN MARYLAND

CITY           SKY/WX    TMP DP  RH WIND       PRES   REMARKS
OAKLAND*       CLOUDY    43  36  75 SE16G22   30.04F
CUMBERLAND*    CLOUDY    50  45  81 CALM      30.12F

$$

VAZ025>031-240700-
SHENANDOAH VALLEY

CITY           SKY/WX    TMP DP  RH WIND       PRES   REMARKS
WINCHESTER*    CLOUDY    48  43  81 CALM      30.08F
FRONT ROYAL*   CLOUDY    50  45  81 CALM      30.07F
LURAY*         RAIN      50  46  87 CALM      30.07S
NEW MARKET*    CLOUDY    48  46  93 CALM      30.07S
STAUNTON*      RAIN      47  46  93 N5        30.08F
WAYNESBORO*    CLOUDY    47  47 100 NW5       30.05F

$$

WVZ021-048>050-054>055-240700-
EASTERN WEST VIRGINIA PANHANDLE

CITY           SKY/WX    TMP DP  RH WIND       PRES   REMARKS
MARTINSBURG    CLOUDY    51  45  79 CALM      30.08F
PETERSBURG*    CLOUDY    51  48  87 CALM      30.07F

$$

VAZ036>039-050-240700-
CENTRAL FOOTHILLS

CITY           SKY/WX    TMP DP  RH WIND       PRES   REMARKS
CHARLOTTESVILL CLOUDY    51  49  92 N3        30.06F
CULPEPER*      LGT RAIN  52  51  98 N3        30.08F
ORANGE*        LGT RAIN  50  46  87 CALM      30.07F
GORDONSVILLE*  CLOUDY    51  49  92 NE3       30.06F
WARRENTON*     DRIZZLE   52  49  89 CALM      30.07F

$$

VAZ055>057-240700-
NORTH AND CENTRAL PIEDMONT

CITY           SKY/WX    TMP DP  RH WIND       PRES   REMARKS
FREDERICKSBRG* CLOUDY    54  50  86 NE5       30.06F
STAFFORD*      RAIN      52  51  96 CALM      30.11F

$$

NCZ024-NYZ072-PAZ021-071-VAZ022-071-240700-
OTHER REGIONAL OBSERVATIONS

CITY           SKY/WX    TMP DP  RH WIND       PRES   REMARKS
NEW YORK CITY  CLEAR     51  38  60 CALM      30.15F
PHILADELPHIA   CLOUDY    51  45  79 SE3       30.11F
PITTSBURGH     CLOUDY    54  31  41 E3        30.03F
ROANOKE        RAIN      48  47  96 NE6       30.04F
RICHMOND       LGT RAIN  52  50  93 NE8       30.03F FOG
RALEIGH        LGT RAIN  53  51  93 E10       29.92F FOG

$$

ANZ530>537-240700-
MARINE OBSERVATIONS

STATION/POSITION TIME  TEMP    WIND        PRES
                       AIR SEA DIR/SP/G
                 (UTC) (F)     (DEG/KT/KT) (MB)
THOMAS PT LIGHT  0600   54 58  100/  7/  8   N/A
BALT KEY BRIDGE  0548          110/  9/ 11 1018.9F
COVE POINT       0548           80/ 11/ 12 1018.7F
LEWISETTA        0542      62   80/ 12/ 18 1017.2F
SOLOMONS ISLAND  0548      61   40/  8/ 10   N/A
PINEY POINT      0548           70/  7/  9   N/A

$$





USA.gov is the U.S. government's official web portal to all federal, state and local government web resources and services.